TimeEDT,TemperatureF,Dew PointF,Humidity,Sea Level PressureIn,VisibilityMPH,Wind Direction,Wind SpeedMPH,Gust SpeedMPH,PrecipitationIn,Events,Conditions,WindDirDegrees,DateUTC
12:15 AM,69.8,66.2,88,30.06,8.0,WNW,4.6,-,N/A,,Partly Cloudy,300,2013-09-12 04:15:00
12:35 AM,69.8,66.2,88,30.06,10.0,West,4.6,-,N/A,,Mostly Cloudy,280,2013-09-12 04:35:00
12:55 AM,71.6,66.2,83,30.05,8.0,West,4.6,-,N/A,,Mostly Cloudy,260,2013-09-12 04:55:00
1:15 AM,69.8,66.2,88,30.03,7.0,Calm,Calm,-,N/A,,Mostly Cloudy,0,2013-09-12 05:15:00
1:35 AM,69.8,66.2,88,30.03,5.0,Calm,Calm,-,N/A,,Partly Cloudy,0,2013-09-12 05:35:00
1:55 AM,69.8,66.2,88,30.03,6.0,Calm,Calm,-,N/A,,Mostly Cloudy,0,2013-09-12 05:55:00
2:15 AM,69.8,66.2,88,30.01,5.0,Calm,Calm,-,N/A,,Overcast,0,2013-09-12 06:15:00
2:35 AM,69.8,66.2,88,30.00,5.0,ESE,6.9,-,N/A,,Overcast,120,2013-09-12 06:35:00
2:55 AM,68.0,66.2,94,30.00,3.0,Calm,Calm,-,N/A,,Mostly Cloudy,0,2013-09-12 06:55:00
3:15 AM,69.8,66.2,88,30.00,3.0,South,3.5,-,N/A,,Overcast,190,2013-09-12 07:15:00
3:35 AM,68.0,66.2,94,30.00,3.0,South,4.6,-,N/A,,Partly Cloudy,170,2013-09-12 07:35:00
3:55 AM,68.0,66.2,94,29.99,3.0,SSE,4.6,-,N/A,,Scattered Clouds,150,2013-09-12 07:55:00
4:15 AM,66.2,64.4,94,29.99,0.5,South,5.8,-,N/A,,Overcast,170,2013-09-12 08:15:00
4:35 AM,66.2,64.4,94,29.99,1.8,South,5.8,-,N/A,,Overcast,190,2013-09-12 08:35:00
4:55 AM,68.0,66.2,94,29.98,3.0,South,6.9,-,N/A,,Overcast,170,2013-09-12 08:55:00
5:15 AM,68.0,64.4,88,29.98,2.5,South,6.9,-,N/A,,Mostly Cloudy,180,2013-09-12 09:15:00
5:35 AM,66.2,64.4,94,29.97,2.5,SSW,6.9,-,N/A,,Scattered Clouds,200,2013-09-12 09:35:00
5:55 AM,66.2,64.4,94,29.97,2.5,SSW,8.1,-,N/A,,Clear,200,2013-09-12 09:55:00
6:15 AM,68.0,64.4,88,29.98,3.0,SSW,6.9,-,N/A,,Mostly Cloudy,200,2013-09-12 10:15:00
6:35 AM,68.0,66.2,94,29.97,3.0,South,9.2,-,N/A,,Overcast,190,2013-09-12 10:35:00
6:55 AM,68.0,66.2,94,29.97,4.0,SSW,6.9,-,N/A,,Overcast,200,2013-09-12 10:55:00
7:15 AM,68.0,66.2,94,29.97,3.0,SSW,8.1,-,N/A,,Overcast,200,2013-09-12 11:15:00
7:35 AM,69.8,66.2,88,29.97,2.5,SSW,6.9,-,N/A,,Overcast,210,2013-09-12 11:35:00
7:55 AM,68.0,66.2,94,29.97,2.5,SW,9.2,-,N/A,,Overcast,220,2013-09-12 11:55:00
8:15 AM,69.8,66.2,88,29.98,1.8,SSW,6.9,-,N/A,,Overcast,210,2013-09-12 12:15:00
8:35 AM,69.8,66.2,88,29.97,1.5,SW,6.9,-,N/A,,Overcast,220,2013-09-12 12:35:00
8:55 AM,69.8,66.2,88,29.97,1.8,SW,6.9,-,N/A,,Overcast,230,2013-09-12 12:55:00
9:15 AM,69.8,66.2,88,29.97,2.5,WSW,6.9,-,N/A,,Overcast,240,2013-09-12 13:15:00
9:35 AM,71.6,66.2,83,29.96,3.0,WSW,6.9,-,N/A,,Overcast,240,2013-09-12 13:35:00
9:55 AM,71.6,68.0,88,29.96,4.0,WSW,5.8,-,N/A,,Overcast,250,2013-09-12 13:55:00
10:15 AM,71.6,66.2,83,29.96,5.0,West,5.8,-,N/A,,Overcast,270,2013-09-12 14:15:00
10:35 AM,71.6,66.2,83,29.96,8.0,West,6.9,-,N/A,,Overcast,260,2013-09-12 14:35:00
10:55 AM,71.6,66.2,83,29.96,10.0,WSW,8.1,-,N/A,,Overcast,250,2013-09-12 14:55:00
11:15 AM,71.6,66.2,83,29.95,10.0,WSW,6.9,-,N/A,,Overcast,250,2013-09-12 15:15:00
11:35 AM,71.6,66.2,83,29.96,6.0,SW,10.4,-,0.01,,Overcast,220,2013-09-12 15:35:00
11:55 AM,69.8,66.2,88,29.94,8.0,WSW,8.1,-,0.02,,Mostly Cloudy,250,2013-09-12 15:55:00
12:15 PM,69.8,66.2,88,29.94,7.0,West,6.9,-,0.01,,Mostly Cloudy,260,2013-09-12 16:15:00
12:35 PM,68.0,66.2,94,29.93,9.0,WSW,5.8,-,0.03,,Mostly Cloudy,250,2013-09-12 16:35:00
12:55 PM,68.0,64.4,88,29.93,8.0,SSW,5.8,-,0.04,,Mostly Cloudy,200,2013-09-12 16:55:00
1:15 PM,68.0,64.4,88,29.93,10.0,SW,10.4,18.4,0.01,,Overcast,230,2013-09-12 17:15:00
1:35 PM,68.0,64.4,88,29.93,4.0,SW,10.4,-,0.02,,Overcast,230,2013-09-12 17:35:00
1:55 PM,66.2,64.4,94,29.92,10.0,WSW,10.4,-,0.02,,Overcast,250,2013-09-12 17:55:00
2:15 PM,69.8,66.2,88,29.91,10.0,SW,8.1,-,N/A,,Mostly Cloudy,230,2013-09-12 18:15:00
2:35 PM,69.8,64.4,83,29.90,10.0,SW,8.1,-,N/A,,Mostly Cloudy,230,2013-09-12 18:35:00
2:55 PM,69.8,64.4,83,29.90,10.0,West,6.9,-,N/A,,Overcast,260,2013-09-12 18:55:00
3:15 PM,69.8,64.4,83,29.89,10.0,West,9.2,-,N/A,,Scattered Clouds,260,2013-09-12 19:15:00
3:35 PM,69.8,64.4,83,29.89,10.0,WSW,6.9,-,N/A,,Mostly Cloudy,250,2013-09-12 19:35:00
3:55 PM,69.8,64.4,83,29.88,10.0,West,6.9,-,N/A,,Mostly Cloudy,260,2013-09-12 19:55:00
4:15 PM,69.8,64.4,83,29.86,10.0,WSW,6.9,-,N/A,,Mostly Cloudy,240,2013-09-12 20:15:00
4:35 PM,69.8,64.4,83,29.86,10.0,SW,5.8,-,N/A,,Partly Cloudy,230,2013-09-12 20:35:00
4:55 PM,69.8,64.4,83,29.86,10.0,WSW,5.8,-,N/A,,Clear,250,2013-09-12 20:55:00
5:15 PM,69.8,64.4,83,29.85,10.0,West,5.8,-,N/A,,Scattered Clouds,280,2013-09-12 21:15:00
5:35 PM,64.4,57.2,77,29.85,10.0,West,6.9,-,0.01,,Mostly Cloudy,270,2013-09-12 21:35:00
5:55 PM,62.6,59.0,88,29.85,10.0,SW,5.8,-,0.01,,Overcast,230,2013-09-12 21:55:00
6:15 PM,62.6,60.8,94,29.86,7.0,West,5.8,-,N/A,,Overcast,270,2013-09-12 22:15:00
6:35 PM,64.4,62.6,94,29.86,5.0,West,9.2,-,N/A,,Overcast,280,2013-09-12 22:35:00
6:55 PM,64.4,62.6,94,29.86,5.0,WNW,6.9,-,N/A,,Mostly Cloudy,290,2013-09-12 22:55:00
7:15 PM,64.4,60.8,88,29.87,10.0,WNW,5.8,-,N/A,,Partly Cloudy,290,2013-09-12 23:15:00
7:35 PM,62.6,57.2,82,29.87,10.0,WNW,6.9,-,N/A,,Clear,300,2013-09-12 23:35:00
7:55 PM,62.6,55.4,77,29.87,10.0,West,5.8,-,N/A,,Clear,280,2013-09-12 23:55:00
8:15 PM,60.8,55.4,82,29.88,10.0,West,4.6,-,N/A,,Clear,280,2013-09-13 00:15:00
8:35 PM,60.8,55.4,82,29.89,10.0,West,3.5,-,N/A,,Clear,270,2013-09-13 00:35:00
8:55 PM,59.0,55.4,88,29.89,10.0,West,3.5,-,N/A,,Clear,270,2013-09-13 00:55:00
9:15 PM,57.2,55.4,94,29.88,10.0,Calm,Calm,-,N/A,,Clear,0,2013-09-13 01:15:00
9:35 PM,57.2,55.4,94,29.87,10.0,Calm,Calm,-,N/A,,Clear,0,2013-09-13 01:35:00
9:55 PM,57.2,55.4,94,29.87,10.0,WNW,3.5,-,N/A,,Clear,300,2013-09-13 01:55:00
10:15 PM,57.2,55.4,94,29.86,10.0,Calm,Calm,-,N/A,,Clear,0,2013-09-13 02:15:00
10:35 PM,57.2,53.6,88,29.87,10.0,Calm,Calm,-,N/A,,Clear,0,2013-09-13 02:35:00
10:55 PM,57.2,53.6,88,29.87,10.0,Calm,Calm,-,N/A,,Clear,0,2013-09-13 02:55:00
11:15 PM,57.2,53.6,88,29.88,10.0,West,4.6,-,N/A,,Mostly Cloudy,280,2013-09-13 03:15:00
11:35 PM,59.0,53.6,82,29.89,10.0,WNW,6.9,-,N/A,,Overcast,290,2013-09-13 03:35:00
11:55 PM,57.2,53.6,88,29.89,10.0,WNW,6.9,-,N/A,,Overcast,290,2013-09-13 03:55:00